| time (UTC) | temp F | wind direction | speed MPH | gust MPH | rain 1hr in | rain 24hr in | rain mn in | humidity % | barometer mb |
| 20260507195556 | 70 | 217 | 3.0 | 6.0 | 0.00 | 0.07 | 0.00 | 50 | 1017.0 |
| 20260507195052 | 70 | 205 | 1.0 | 6.0 | 0.00 | 0.07 | 0.00 | 49 | 1016.8 |
| 20260507194552 | 70 | 105 | 1.0 | 8.0 | 0.00 | 0.07 | 0.00 | 52 | 1016.7 |
| 20260507194055 | 70 | 120 | 2.0 | 8.0 | 0.00 | 0.07 | 0.00 | 49 | 1016.7 |
| 20260507193552 | 70 | 179 | 1.0 | 5.0 | 0.00 | 0.07 | 0.00 | 52 | 1016.8 |
| 20260507193110 | 70 | 115 | 1.0 | 4.0 | 0.00 | 0.07 | 0.00 | 49 | 1017.0 |
| 20260507192553 | 70 | 195 | 1.0 | 5.0 | 0.00 | 0.07 | 0.00 | 55 | 1017.0 |
| 20260507192055 | 71 | 113 | 2.0 | 5.0 | 0.00 | 0.07 | 0.00 | 51 | 1017.1 |
| 20260507191557 | 70 | 125 | 2.0 | 7.0 | 0.00 | 0.07 | 0.00 | 50 | 1017.1 |
| 20260507191051 | 71 | 177 | 3.0 | 7.0 | 0.00 | 0.07 | 0.00 | 53 | 1017.1 |
| 20260507190551 | 70 | 120 | 1.0 | 7.0 | 0.00 | 0.07 | 0.00 | 55 | 1017.3 |
| 20260507190053 | 70 | 94 | 2.0 | 5.0 | 0.00 | 0.07 | 0.00 | 53 | 1017.4 |
| 20260507185551 | 70 | 198 | 2.0 | 6.0 | 0.00 | 0.07 | 0.00 | 51 | 1017.3 |
| 20260507185052 | 70 | 274 | 1.0 | 6.0 | 0.00 | 0.07 | 0.00 | 54 | 1017.3 |
| 20260507184551 | 69 | 116 | 2.0 | 7.0 | 0.00 | 0.07 | 0.00 | 52 | 1017.4 |
| 20260507184055 | 69 | 100 | 2.0 | 7.0 | 0.00 | 0.07 | 0.00 | 57 | 1017.3 |
| 20260507183554 | 69 | 168 | 2.0 | 7.0 | 0.00 | 0.07 | 0.00 | 53 | 1017.4 |
| 20260507183100 | 69 | 82 | 2.0 | 7.0 | 0.00 | 0.07 | 0.00 | 55 | 1017.4 |
| 20260507182552 | 69 | 134 | 1.0 | 7.0 | 0.00 | 0.07 | 0.00 | 55 | 1017.5 |
| 20260507182053 | 69 | 165 | 2.0 | 8.0 | 0.00 | 0.07 | 0.00 | 50 | 1017.6 |
| 20260507181556 | 69 | 78 | 3.0 | 8.0 | 0.00 | 0.07 | 0.00 | 58 | 1017.5 |
| 20260507181052 | 69 | 101 | 2.0 | 6.0 | 0.00 | 0.07 | 0.00 | 59 | 1017.6 |
| 20260507180552 | 68 | 90 | 2.0 | 6.0 | 0.00 | 0.07 | 0.00 | 52 | 1017.6 |
| 20260507180059 | 69 | 188 | 1.0 | 4.0 | 0.00 | 0.07 | 0.00 | 62 | 1017.6 |
| 20260507175559 | 69 | 307 | 1.0 | 4.0 | 0.00 | 0.08 | 0.00 | 52 | 1017.8 |
| 20260507175052 | 68 | 72 | 1.0 | 4.0 | 0.00 | 0.08 | 0.00 | 60 | 1017.9 |
| 20260507174608 | 67 | 139 | 1.0 | 6.0 | 0.00 | 0.08 | 0.00 | 54 | 1017.9 |
| 20260507174054 | 68 | 157 | 2.0 | 6.0 | 0.00 | 0.08 | 0.00 | 52 | 1018.0 |
| 20260507173550 | 68 | 140 | 1.0 | 5.0 | 0.00 | 0.08 | 0.00 | 58 | 1018.0 |
| 20260507173134 | 68 | 191 | 2.0 | 5.0 | 0.00 | 0.08 | 0.00 | 54 | 1018.1 |
| 20260507172554 | 68 | 139 | 1.0 | 5.0 | 0.00 | 0.08 | 0.00 | 60 | 1018.1 |
| 20260507172051 | 68 | 74 | 2.0 | 5.0 | 0.00 | 0.08 | 0.00 | 59 | 1018.2 |
| 20260507171553 | 68 | 120 | 2.0 | 7.0 | 0.00 | 0.08 | 0.00 | 57 | 1018.3 |
| 20260507171052 | 67 | 200 | 2.0 | 7.0 | 0.00 | 0.08 | 0.00 | 57 | 1018.3 |
| 20260507170553 | 68 | 195 | 2.0 | 7.0 | 0.00 | 0.08 | 0.00 | 56 | 1018.4 |
| 20260507170055 | 68 | 136 | 1.0 | 6.0 | 0.00 | 0.08 | 0.00 | 56 | 1018.4 |
| 20260507165549 | 67 | 124 | 1.0 | 9.0 | 0.00 | 0.14 | 0.00 | 61 | 1018.4 |
| 20260507165050 | 66 | 148 | 3.0 | 9.0 | 0.00 | 0.14 | 0.00 | 56 | 1018.6 |
| 20260507164600 | 66 | 162 | 3.0 | 7.0 | 0.00 | 0.14 | 0.00 | 56 | 1018.6 |
| 20260507164050 | 66 | 219 | 3.0 | 7.0 | 0.00 | 0.14 | 0.00 | 54 | 1018.7 |
| 20260507163550 | 67 | 138 | 1.0 | 12.0 | 0.00 | 0.14 | 0.00 | 63 | 1018.5 |
| 20260507163053 | 66 | 213 | 2.0 | 12.0 | 0.00 | 0.14 | 0.00 | 59 | 1018.7 |
| 20260507162557 | 66 | 96 | 3.0 | 12.0 | 0.00 | 0.14 | 0.00 | 55 | 1018.6 |
| 20260507162049 | 67 | 64 | 2.0 | 4.0 | 0.00 | 0.14 | 0.00 | 58 | 1018.6 |
| 20260507161608 | 67 | 144 | 0.0 | 4.0 | 0.00 | 0.14 | 0.00 | 64 | 1018.6 |
| 20260507161049 | 66 | 106 | 1.0 | 5.0 | 0.00 | 0.14 | 0.00 | 61 | 1018.6 |
| 20260507160552 | 65 | 172 | 2.0 | 5.0 | 0.00 | 0.14 | 0.00 | 57 | 1018.7 |
| 20260507160104 | 65 | 186 | 1.0 | 5.0 | 0.00 | 0.14 | 0.00 | 61 | 1018.7 |
| 20260507155548 | 65 | 134 | 1.0 | 7.0 | 0.00 | 0.19 | 0.00 | 61 | 1018.6 |
| 20260507155050 | 65 | 126 | 2.0 | 7.0 | 0.00 | 0.19 | 0.00 | 61 | 1018.5 |
| 20260507154552 | 64 | 188 | 3.0 | 7.0 | 0.00 | 0.19 | 0.00 | 57 | 1018.4 |
| 20260507154050 | 65 | 191 | 2.0 | 6.0 | 0.00 | 0.19 | 0.00 | 59 | 1018.5 |
| 20260507153549 | 66 | 127 | 2.0 | 6.0 | 0.00 | 0.19 | 0.00 | 61 | 1018.6 |
| 20260507153053 | 65 | 65 | 0.0 | 5.0 | 0.00 | 0.19 | 0.00 | 65 | 1018.4 |
| 20260507152549 | 65 | 192 | 1.0 | 6.0 | 0.00 | 0.19 | 0.00 | 62 | 1018.5 |
| 20260507152050 | 64 | 110 | 2.0 | 7.0 | 0.00 | 0.19 | 0.00 | 64 | 1018.6 |
| 20260507151556 | 64 | 169 | 2.0 | 7.0 | 0.00 | 0.19 | 0.00 | 65 | 1018.7 |
| 20260507151052 | 64 | 96 | 1.0 | 5.0 | 0.00 | 0.19 | 0.00 | 68 | 1018.7 |
| 20260507150550 | 65 | 118 | 1.0 | 4.0 | 0.00 | 0.19 | 0.00 | 66 | 1018.7 |
| 20260507150059 | 64 | 0 | 1.0 | 4.0 | 0.00 | 0.19 | 0.00 | 78 | 1018.7 |
| 20260507145552 | 63 | 132 | 1.0 | 4.0 | 0.00 | 0.34 | 0.00 | 72 | 1018.9 |
| 20260507145050 | 63 | 177 | 2.0 | 4.0 | 0.00 | 0.34 | 0.00 | 72 | 1019.0 |
| 20260507144601 | 63 | 238 | 1.0 | 3.0 | 0.00 | 0.34 | 0.00 | 72 | 1019.0 |
| 20260507144053 | 62 | 203 | 1.0 | 5.0 | 0.00 | 0.34 | 0.00 | 77 | 1018.9 |
| 20260507143549 | 62 | 134 | 1.0 | 5.0 | 0.00 | 0.34 | 0.00 | 76 | 1018.8 |
| 20260507143059 | 62 | 124 | 1.0 | 4.0 | 0.00 | 0.34 | 0.00 | 80 | 1018.6 |
| 20260507142551 | 61 | 95 | 1.0 | 4.0 | 0.00 | 0.34 | 0.00 | 78 | 1018.6 |
| 20260507142052 | 61 | 196 | 1.0 | 6.0 | 0.00 | 0.34 | 0.00 | 77 | 1018.6 |
| 20260507141619 | 61 | 93 | 1.0 | 6.0 | 0.00 | 0.34 | 0.00 | 80 | 1018.9 |
| 20260507141049 | 61 | 156 | 1.0 | 4.0 | 0.00 | 0.34 | 0.00 | 80 | 1018.8 |
| 20260507140552 | 60 | 166 | 2.0 | 4.0 | 0.00 | 0.34 | 0.00 | 79 | 1018.8 |
| 20260507140109 | 60 | 188 | 1.0 | 6.0 | 0.00 | 0.34 | 0.00 | 80 | 1018.7 |
| 20260507135555 | 59 | 127 | 0.0 | 6.0 | 0.00 | 0.36 | 0.00 | 84 | 1018.6 |
| 20260507135052 | 59 | 211 | 2.0 | 6.0 | 0.00 | 0.36 | 0.00 | 80 | 1018.7 |
| 20260507134608 | 59 | 153 | 1.0 | 5.0 | 0.00 | 0.36 | 0.00 | 83 | 1018.6 |
| 20260507134051 | 58 | 121 | 1.0 | 5.0 | 0.00 | 0.36 | 0.00 | 85 | 1018.6 |
| 20260507133549 | 58 | 186 | 1.0 | 5.0 | 0.00 | 0.36 | 0.00 | 84 | 1018.5 |
| 20260507133056 | 58 | 153 | 1.0 | 4.0 | 0.00 | 0.36 | 0.00 | 85 | 1018.5 |
| 20260507132549 | 57 | 167 | 0.0 | 4.0 | 0.00 | 0.36 | 0.00 | 84 | 1018.4 |
| 20260507132049 | 57 | 274 | 1.0 | 4.0 | 0.00 | 0.36 | 0.00 | 85 | 1018.4 |
| 20260507131552 | 56 | 154 | 1.0 | 4.0 | 0.00 | 0.36 | 0.00 | 88 | 1018.5 |
| 20260507131050 | 56 | 120 | 1.0 | 4.0 | 0.00 | 0.36 | 0.00 | 88 | 1018.5 |
| 20260507130552 | 56 | 173 | 1.0 | 3.0 | 0.00 | 0.36 | 0.00 | 88 | 1018.5 |
| 20260507130056 | 56 | 134 | 0.0 | 3.0 | 0.00 | 0.36 | 0.00 | 90 | 1018.3 |
| 20260507125549 | 55 | 160 | 0.0 | 3.0 | 0.00 | 0.36 | 0.00 | 89 | 1018.3 |
| 20260507125055 | 55 | 159 | 0.0 | 3.0 | 0.00 | 0.36 | 0.00 | 90 | 1018.2 |
| 20260507124553 | 54 | 0 | 0.0 | 3.0 | 0.00 | 0.36 | 0.00 | 92 | 1018.2 |
| 20260507124050 | 54 | 191 | 0.0 | 3.0 | 0.00 | 0.36 | 0.00 | 93 | 1018.1 |
| 20260507123550 | 53 | 138 | 0.0 | 2.0 | 0.00 | 0.36 | 0.00 | 94 | 1018.0 |
| 20260507123052 | 52 | 0 | 0.0 | 2.0 | 0.00 | 0.36 | 0.00 | 96 | 1018.0 |
| 20260507122549 | 51 | 174 | 0.0 | 1.0 | 0.00 | 0.36 | 0.00 | 97 | 1017.9 |
| 20260507122048 | 50 | 0 | 0.0 | 1.0 | 0.00 | 0.36 | 0.00 | 97 | 1017.8 |
| 20260507121554 | 50 | 147 | 0.0 | 3.0 | 0.00 | 0.36 | 0.00 | 98 | 1017.7 |
| 20260507121050 | 50 | 0 | 0.0 | 3.0 | 0.00 | 0.36 | 0.00 | 98 | 1017.6 |
| 20260507120552 | 49 | 139 | 0.0 | 2.0 | 0.00 | 0.36 | 0.00 | 99 | 1017.4 |
| 20260507120054 | 49 | 134 | 0.0 | 1.0 | 0.00 | 0.36 | 0.00 | 99 | 1017.4 |
| 20260507115552 | 48 | 143 | 0.0 | 1.0 | 0.00 | 0.37 | 0.00 | 99 | 1017.3 |
| 20260507115049 | 48 | 0 | 0.0 | 1.0 | 0.00 | 0.37 | 0.00 | 99 | 1017.3 |
| 20260507114559 | 48 | 0 | 0.0 | 1.0 | 0.00 | 0.37 | 0.00 | 99 | 1017.3 |
| 20260507114049 | 48 | 0 | 0.0 | 1.0 | 0.00 | 0.37 | 0.00 | 99 | 1017.2 |
| 20260507113554 | 48 | 143 | 0.0 | 1.0 | 0.00 | 0.37 | 0.00 | 99 | 1017.1 |
| 20260507113052 | 48 | 0 | 0.0 | 1.0 | 0.00 | 0.37 | 0.00 | 99 | 1017.1 |
| 20260507112553 | 48 | 0 | 0.0 | 1.0 | 0.00 | 0.37 | 0.00 | 99 | 1017.1 |
| 20260507112049 | 47 | 0 | 0.0 | 1.0 | 0.00 | 0.37 | 0.00 | 99 | 1017.1 |
| 20260507111600 | 48 | 0 | 0.0 | 1.0 | 0.00 | 0.37 | 0.00 | 98 | 1017.1 |
| 20260507111053 | 48 | 0 | 0.0 | 1.0 | 0.00 | 0.37 | 0.00 | 99 | 1017.2 |
| 20260507110549 | 48 | 0 | 0.0 | 1.0 | 0.00 | 0.37 | 0.00 | 98 | 1017.1 |
| 20260507110056 | 48 | 0 | 0.0 | 0.0 | 0.00 | 0.37 | 0.00 | 98 | 1016.9 |
| 20260507105551 | 48 | 0 | 0.0 | 0.0 | 0.00 | 0.58 | 0.00 | 98 | 1017.0 |
| 20260507105052 | 48 | 0 | 0.0 | 0.0 | 0.00 | 0.58 | 0.00 | 98 | 1016.8 |
| 20260507104555 | 48 | 0 | 0.0 | 0.0 | 0.00 | 0.58 | 0.00 | 98 | 1016.9 |
| 20260507104051 | 48 | 0 | 0.0 | 1.0 | 0.00 | 0.58 | 0.00 | 98 | 1017.0 |
| 20260507103552 | 48 | 0 | 0.0 | 1.0 | 0.00 | 0.58 | 0.00 | 98 | 1016.9 |
| 20260507103054 | 48 | 0 | 0.0 | 1.0 | 0.00 | 0.58 | 0.00 | 98 | 1017.0 |
| 20260507102549 | 48 | 0 | 0.0 | 1.0 | 0.00 | 0.58 | 0.00 | 98 | 1016.9 |
| 20260507102052 | 48 | 0 | 0.0 | 1.0 | 0.00 | 0.58 | 0.00 | 98 | 1016.9 |
| 20260507101607 | 49 | 0 | 0.0 | 1.0 | 0.00 | 0.58 | 0.00 | 98 | 1016.7 |
| 20260507101048 | 49 | 0 | 0.0 | 1.0 | 0.00 | 0.58 | 0.00 | 98 | 1016.7 |
| 20260507100549 | 49 | 0 | 0.0 | 0.0 | 0.00 | 0.58 | 0.00 | 98 | 1016.7 |
| 20260507100055 | 49 | 0 | 0.0 | 1.0 | 0.00 | 0.58 | 0.00 | 98 | 1016.8 |
| 20260507095549 | 49 | 0 | 0.0 | 1.0 | 0.00 | 0.70 | 0.00 | 98 | 1016.8 |
| 20260507095050 | 49 | 0 | 0.0 | 1.0 | 0.00 | 0.70 | 0.00 | 98 | 1017.0 |
| 20260507094555 | 49 | 0 | 0.0 | 1.0 | 0.00 | 0.70 | 0.00 | 98 | 1016.9 |
| 20260507094052 | 49 | 0 | 0.0 | 1.0 | 0.00 | 0.70 | 0.00 | 98 | 1016.7 |
| 20260507093549 | 49 | 0 | 0.0 | 0.0 | 0.00 | 0.70 | 0.00 | 98 | 1016.8 |
| 20260507093057 | 49 | 0 | 0.0 | 0.0 | 0.00 | 0.70 | 0.00 | 98 | 1016.7 |
| 20260507092604 | 49 | 0 | 0.0 | 0.0 | 0.00 | 0.70 | 0.00 | 98 | 1016.6 |
| 20260507092052 | 49 | 0 | 0.0 | 0.0 | 0.00 | 0.70 | 0.00 | 98 | 1016.6 |
| 20260507091557 | 49 | 0 | 0.0 | 1.0 | 0.00 | 0.70 | 0.00 | 97 | 1016.5 |
| 20260507091052 | 49 | 0 | 0.0 | 1.0 | 0.00 | 0.70 | 0.00 | 97 | 1016.4 |
| 20260507090551 | 50 | 0 | 0.0 | 0.0 | 0.00 | 0.70 | 0.00 | 97 | 1016.4 |
| 20260507090052 | 50 | 0 | 0.0 | 0.0 | 0.00 | 0.70 | 0.00 | 97 | 1016.4 |
| 20260507085549 | 50 | 0 | 0.0 | 0.0 | 0.00 | 1.23 | 0.00 | 97 | 1016.3 |
| 20260507085052 | 50 | 0 | 0.0 | 0.0 | 0.00 | 1.23 | 0.00 | 97 | 1016.4 |
| 20260507084555 | 50 | 0 | 0.0 | 0.0 | 0.00 | 1.23 | 0.00 | 97 | 1016.3 |
| 20260507084049 | 51 | 0 | 0.0 | 1.0 | 0.00 | 1.23 | 0.00 | 97 | 1016.2 |
| 20260507083549 | 51 | 0 | 0.0 | 1.0 | 0.00 | 1.23 | 0.00 | 97 | 1016.1 |
| 20260507083053 | 51 | 0 | 0.0 | 1.0 | 0.00 | 1.23 | 0.00 | 97 | 1016.0 |
| 20260507082551 | 51 | 0 | 0.0 | 1.0 | 0.00 | 1.23 | 0.00 | 98 | 1016.0 |
| 20260507082049 | 51 | 0 | 0.0 | 1.0 | 0.00 | 1.23 | 0.00 | 98 | 1016.0 |
| 20260507081552 | 51 | 0 | 0.0 | 0.0 | 0.00 | 1.23 | 0.00 | 98 | 1016.2 |
| 20260507081049 | 51 | 0 | 0.0 | 0.0 | 0.00 | 1.23 | 0.00 | 98 | 1016.3 |
| 20260507080549 | 51 | 0 | 0.0 | 0.0 | 0.00 | 1.23 | 0.00 | 98 | 1016.4 |
| 20260507080055 | 51 | 0 | 0.0 | 0.0 | 0.00 | 1.23 | 0.00 | 97 | 1016.4 |
| 20260507075556 | 51 | 0 | 0.0 | 0.0 | 0.00 | 1.40 | 0.00 | 97 | 1016.5 |
| 20260507075049 | 51 | 0 | 0.0 | 0.0 | 0.00 | 1.40 | 0.00 | 97 | 1016.5 |
| 20260507074557 | 51 | 0 | 0.0 | 0.0 | 0.00 | 1.40 | 0.00 | 97 | 1016.5 |
| 20260507074051 | 51 | 0 | 0.0 | 0.0 | 0.00 | 1.40 | 0.00 | 97 | 1016.4 |
| 20260507073549 | 51 | 0 | 0.0 | 0.0 | 0.00 | 1.40 | 0.00 | 96 | 1016.4 |
| 20260507073052 | 51 | 0 | 0.0 | 0.0 | 0.00 | 1.40 | 0.00 | 96 | 1016.3 |
| 20260507072550 | 52 | 0 | 0.0 | 0.0 | 0.00 | 1.40 | 0.00 | 96 | 1016.3 |
| 20260507072049 | 52 | 0 | 0.0 | 1.0 | 0.00 | 1.40 | 0.00 | 96 | 1016.5 |
| 20260507071551 | 52 | 0 | 0.0 | 1.0 | 0.00 | 1.40 | 0.00 | 96 | 1016.4 |
| 20260507071051 | 52 | 0 | 0.0 | 1.0 | 0.00 | 1.40 | 0.00 | 96 | 1016.1 |
| 20260507070549 | 52 | 0 | 0.0 | 1.0 | 0.00 | 1.40 | 0.00 | 96 | 1016.3 |
| 20260507070056 | 52 | 0 | 0.0 | 1.0 | 0.00 | 1.40 | 0.00 | 96 | 1016.4 |
| 20260507065551 | 52 | 0 | 0.0 | 1.0 | 0.00 | 1.74 | 0.00 | 96 | 1016.5 |
| 20260507065051 | 52 | 0 | 0.0 | 1.0 | 0.00 | 1.74 | 0.00 | 97 | 1016.5 |
| 20260507064607 | 52 | 0 | 0.0 | 1.0 | 0.00 | 1.74 | 0.00 | 97 | 1016.4 |
| 20260507064052 | 52 | 0 | 0.0 | 1.0 | 0.00 | 1.74 | 0.00 | 97 | 1016.3 |
| 20260507063554 | 52 | 0 | 0.0 | 1.0 | 0.00 | 1.74 | 0.00 | 97 | 1016.3 |
| 20260507063058 | 52 | 0 | 0.0 | 1.0 | 0.00 | 1.74 | 0.00 | 97 | 1016.3 |
| 20260507062551 | 52 | 0 | 0.0 | 1.0 | 0.00 | 1.74 | 0.00 | 97 | 1016.4 |
| 20260507062049 | 52 | 0 | 0.0 | 1.0 | 0.00 | 1.74 | 0.00 | 97 | 1016.6 |
| 20260507061556 | 52 | 0 | 0.0 | 0.0 | 0.00 | 1.74 | 0.00 | 97 | 1016.6 |
| 20260507061100 | 52 | 0 | 0.0 | 1.0 | 0.00 | 1.74 | 0.00 | 97 | 1016.6 |
| 20260507060551 | 52 | 0 | 0.0 | 1.0 | 0.00 | 1.74 | 0.00 | 97 | 1016.5 |
| 20260507060058 | 52 | 0 | 0.0 | 1.0 | 0.00 | 1.74 | 0.00 | 97 | 1016.5 |
| 20260507055550 | 53 | 0 | 0.0 | 1.0 | 0.00 | 1.74 | 0.00 | 97 | 1016.5 |
| 20260507055049 | 53 | 0 | 0.0 | 1.0 | 0.00 | 1.74 | 0.00 | 97 | 1016.5 |
| 20260507054606 | 53 | 131 | 0.0 | 1.0 | 0.00 | 1.74 | 0.00 | 97 | 1016.3 |
| 20260507054052 | 53 | 0 | 0.0 | 1.0 | 0.00 | 1.74 | 0.00 | 97 | 1016.5 |
| 20260507053552 | 53 | 195 | 0.0 | 2.0 | 0.00 | 1.74 | 0.00 | 97 | 1016.3 |
| 20260507053055 | 53 | 0 | 0.0 | 2.0 | 0.00 | 1.74 | 0.00 | 97 | 1016.3 |
| 20260507052552 | 53 | 146 | 0.0 | 2.0 | 0.00 | 1.74 | 0.00 | 97 | 1016.3 |
| 20260507052052 | 53 | 140 | 0.0 | 2.0 | 0.00 | 1.74 | 0.00 | 97 | 1016.4 |
| 20260507051555 | 53 | 0 | 0.0 | 2.0 | 0.00 | 1.74 | 0.00 | 97 | 1016.2 |
| 20260507051052 | 53 | 117 | 0.0 | 1.0 | 0.00 | 1.74 | 0.00 | 97 | 1016.0 |
| 20260507050549 | 52 | 132 | 0.0 | 1.0 | 0.00 | 1.74 | 0.00 | 97 | 1015.9 |
| 20260507050056 | 52 | 131 | 0.0 | 1.0 | 0.00 | 1.74 | 0.00 | 97 | 1016.0 |
| 20260507045552 | 52 | 131 | 0.0 | 2.0 | 0.00 | 1.74 | 1.74 | 97 | 1016.1 |
| 20260507045050 | 52 | 155 | 0.0 | 2.0 | 0.00 | 1.74 | 1.74 | 97 | 1016.0 |
| 20260507044554 | 52 | 0 | 0.0 | 2.0 | 0.00 | 1.74 | 1.74 | 97 | 1016.1 |
| 20260507044049 | 52 | 136 | 0.0 | 1.0 | 0.00 | 1.74 | 1.74 | 97 | 1016.0 |
| 20260507043549 | 52 | 0 | 0.0 | 1.0 | 0.00 | 1.74 | 1.74 | 97 | 1016.3 |
| 20260507043059 | 53 | 136 | 0.0 | 1.0 | 0.00 | 1.74 | 1.74 | 97 | 1016.3 |
| 20260507042553 | 52 | 136 | 0.0 | 1.0 | 0.00 | 1.74 | 1.74 | 97 | 1016.5 |
| 20260507042051 | 53 | 0 | 0.0 | 1.0 | 0.00 | 1.74 | 1.74 | 97 | 1016.3 |
| 20260507041600 | 53 | 0 | 0.0 | 1.0 | 0.00 | 1.74 | 1.74 | 97 | 1016.1 |
| 20260507041054 | 53 | 0 | 0.0 | 1.0 | 0.00 | 1.74 | 1.74 | 97 | 1016.3 |
| 20260507040555 | 53 | 0 | 0.0 | 1.0 | 0.00 | 1.74 | 1.74 | 97 | 1016.2 |
| 20260507040058 | 53 | 0 | 0.0 | 2.0 | 0.00 | 1.74 | 1.74 | 97 | 1016.4 |
| 20260507035552 | 53 | 171 | 0.0 | 2.0 | 0.00 | 1.74 | 1.74 | 96 | 1016.4 |
| 20260507035052 | 53 | 160 | 0.0 | 0.0 | 0.00 | 1.74 | 1.74 | 96 | 1016.6 |
| 20260507034557 | 53 | 0 | 0.0 | 0.0 | 0.00 | 1.74 | 1.74 | 96 | 1016.8 |
| 20260507034048 | 53 | 0 | 0.0 | 0.0 | 0.00 | 1.74 | 1.74 | 96 | 1017.0 |
| 20260507033552 | 53 | 0 | 0.0 | 2.0 | 0.00 | 1.74 | 1.74 | 96 | 1016.9 |
| 20260507033054 | 53 | 0 | 0.0 | 2.0 | 0.00 | 1.74 | 1.74 | 96 | 1016.8 |
| 20260507032553 | 53 | 0 | 0.0 | 2.0 | 0.00 | 1.74 | 1.74 | 96 | 1016.9 |
| 20260507032053 | 53 | 0 | 0.0 | 2.0 | 0.00 | 1.74 | 1.74 | 96 | 1016.8 |
| 20260507031551 | 53 | 143 | 0.0 | 2.0 | 0.00 | 1.74 | 1.74 | 96 | 1016.4 |
| 20260507031052 | 53 | 114 | 0.0 | 2.0 | 0.00 | 1.74 | 1.74 | 96 | 1016.7 |
| 20260507030552 | 53 | 0 | 0.0 | 2.0 | 0.00 | 1.74 | 1.74 | 96 | 1016.6 |
| 20260507025551 | 53 | 0 | 0.0 | 0.0 | 0.00 | 1.74 | 1.74 | 96 | 1016.5 |
| 20260507025052 | 53 | 148 | 0.0 | 0.0 | 0.00 | 1.74 | 1.74 | 96 | 1016.3 |
| 20260507024557 | 53 | 0 | 0.0 | 2.0 | 0.00 | 1.74 | 1.74 | 96 | 1016.2 |
| 20260507024053 | 53 | 0 | 0.0 | 2.0 | 0.00 | 1.74 | 1.74 | 96 | 1016.2 |
| 20260507023552 | 53 | 168 | 0.0 | 2.0 | 0.00 | 1.74 | 1.74 | 96 | 1016.1 |
| 20260507023110 | 53 | 188 | 0.0 | 5.0 | 0.00 | 1.74 | 1.74 | 96 | 1016.0 |
| 20260507022552 | 53 | 0 | 1.0 | 5.0 | 0.00 | 1.74 | 1.74 | 96 | 1015.8 |
| 20260507022052 | 53 | 146 | 0.0 | 2.0 | 0.00 | 1.74 | 1.74 | 97 | 1015.8 |
| 20260507021558 | 53 | 0 | 0.0 | 2.0 | 0.00 | 1.74 | 1.74 | 97 | 1015.9 |
| 20260507021053 | 53 | 129 | 0.0 | 3.0 | 0.00 | 1.74 | 1.74 | 97 | 1015.8 |
| 20260507020549 | 53 | 155 | 0.0 | 3.0 | 0.00 | 1.74 | 1.74 | 97 | 1015.9 |
| 20260507020056 | 53 | 155 | 0.0 | 3.0 | 0.00 | 1.74 | 1.74 | 97 | 1016.0 |
| 20260507015551 | 53 | 0 | 0.0 | 2.0 | 0.00 | 1.74 | 1.74 | 97 | 1015.8 |
| 20260507015051 | 53 | 0 | 0.0 | 2.0 | 0.00 | 1.74 | 1.74 | 97 | 1015.7 |
| 20260507014605 | 53 | 115 | 0.0 | 2.0 | 0.00 | 1.74 | 1.74 | 97 | 1015.7 |
| 20260507014052 | 53 | 122 | 0.0 | 2.0 | 0.00 | 1.74 | 1.74 | 96 | 1015.6 |
| 20260507013551 | 53 | 0 | 0.0 | 4.0 | 0.00 | 1.74 | 1.74 | 96 | 1015.8 |
| 20260507013114 | 53 | 0 | 0.0 | 4.0 | 0.00 | 1.74 | 1.74 | 96 | 1015.2 |
| 20260507012552 | 53 | 139 | 0.0 | 4.0 | 0.00 | 1.74 | 1.74 | 96 | 1015.2 |
| 20260507012049 | 53 | 139 | 0.0 | 4.0 | 0.00 | 1.74 | 1.74 | 96 | 1015.5 |
| 20260507011552 | 53 | 150 | 1.0 | 4.0 | 0.00 | 1.74 | 1.74 | 96 | 1015.1 |
| 20260507011051 | 53 | 103 | 0.0 | 3.0 | 0.00 | 1.74 | 1.74 | 96 | 1015.1 |
| 20260507010552 | 53 | 122 | 0.0 | 3.0 | 0.00 | 1.74 | 1.74 | 96 | 1015.4 |
| 20260507010056 | 53 | 155 | 1.0 | 3.0 | 0.00 | 1.74 | 1.74 | 96 | 1015.1 |
| 20260507005552 | 53 | 106 | 1.0 | 3.0 | 0.01 | 1.74 | 1.74 | 96 | 1015.2 |
| 20260507005051 | 53 | 174 | 0.0 | 2.0 | 0.01 | 1.74 | 1.74 | 96 | 1015.3 |
| 20260507004553 | 53 | 150 | 0.0 | 3.0 | 0.01 | 1.74 | 1.74 | 96 | 1015.7 |
| 20260507004051 | 53 | 162 | 0.0 | 4.0 | 0.01 | 1.74 | 1.74 | 96 | 1015.8 |
| 20260507003549 | 53 | 89 | 0.0 | 4.0 | 0.01 | 1.74 | 1.74 | 96 | 1015.7 |
| 20260507003056 | 54 | 116 | 1.0 | 2.0 | 0.01 | 1.74 | 1.74 | 96 | 1015.7 |
| 20260507002551 | 54 | 143 | 0.0 | 3.0 | 0.01 | 1.74 | 1.74 | 96 | 1015.6 |
| 20260507002050 | 54 | 195 | 1.0 | 3.0 | 0.01 | 1.74 | 1.74 | 96 | 1015.8 |
| 20260507001609 | 54 | 158 | 0.0 | 2.0 | 0.01 | 1.74 | 1.74 | 96 | 1015.4 |
| 20260507001054 | 54 | 138 | 0.0 | 2.0 | 0.01 | 1.74 | 1.74 | 96 | 1015.6 |
| 20260507000549 | 54 | 0 | 0.0 | 3.0 | 0.01 | 1.74 | 1.74 | 96 | 1015.7 |
| 20260507000052 | 54 | 134 | 0.0 | 3.0 | 0.01 | 1.74 | 1.74 | 96 | 1015.5 |
| 20260506235550 | 54 | 166 | 0.0 | 2.0 | 0.00 | 1.73 | 1.73 | 95 | 1015.1 |
| 20260506235046 | 54 | 150 | 0.0 | 2.0 | 0.00 | 1.73 | 1.73 | 95 | 1015.4 |
| 20260506234552 | 54 | 143 | 0.0 | 2.0 | 0.00 | 1.73 | 1.73 | 95 | 1015.9 |
| 20260506234050 | 54 | 105 | 0.0 | 2.0 | 0.00 | 1.73 | 1.73 | 95 | 1015.7 |
| 20260506233549 | 54 | 140 | 0.0 | 3.0 | 0.00 | 1.73 | 1.73 | 95 | 1015.9 |
| 20260506233051 | 54 | 0 | 0.0 | 3.0 | 0.00 | 1.73 | 1.73 | 95 | 1016.1 |
| 20260506232549 | 54 | 138 | 1.0 | 3.0 | 0.00 | 1.73 | 1.73 | 95 | 1015.8 |
| 20260506232050 | 54 | 0 | 0.0 | 3.0 | 0.00 | 1.73 | 1.73 | 95 | 1015.4 |
| 20260506231551 | 54 | 0 | 1.0 | 3.0 | 0.00 | 1.73 | 1.73 | 95 | 1015.3 |
| 20260506231050 | 54 | 154 | 0.0 | 4.0 | 0.00 | 1.73 | 1.73 | 95 | 1015.5 |
| 20260506230549 | 54 | 142 | 0.0 | 4.0 | 0.00 | 1.73 | 1.73 | 95 | 1015.5 |
| 20260506230055 | 54 | 103 | 1.0 | 4.0 | 0.00 | 1.73 | 1.73 | 94 | 1015.4 |
| 20260506225547 | 54 | 168 | 1.0 | 3.0 | 0.00 | 1.73 | 1.73 | 95 | 1015.4 |
| 20260506225047 | 54 | 127 | 0.0 | 4.0 | 0.00 | 1.73 | 1.73 | 95 | 1015.0 |
| 20260506224552 | 54 | 153 | 1.0 | 5.0 | 0.00 | 1.73 | 1.73 | 94 | 1014.9 |
| 20260506224050 | 54 | 120 | 0.0 | 5.0 | 0.00 | 1.73 | 1.73 | 94 | 1014.6 |
| 20260506223549 | 54 | 174 | 2.0 | 5.0 | 0.00 | 1.73 | 1.73 | 94 | 1014.6 |
| 20260506223111 | 54 | 177 | 1.0 | 6.0 | 0.00 | 1.73 | 1.73 | 94 | 1014.5 |
| 20260506222548 | 55 | 152 | 2.0 | 6.0 | 0.00 | 1.73 | 1.73 | 94 | 1014.2 |
| 20260506222052 | 55 | 182 | 2.0 | 6.0 | 0.00 | 1.73 | 1.73 | 94 | 1014.2 |
| 20260506221555 | 55 | 212 | 0.0 | 6.0 | 0.00 | 1.73 | 1.73 | 95 | 1014.2 |
| 20260506221050 | 55 | 165 | 1.0 | 6.0 | 0.00 | 1.73 | 1.73 | 95 | 1014.1 |
| 20260506220550 | 55 | 136 | 1.0 | 6.0 | 0.01 | 1.73 | 1.73 | 95 | 1014.1 |
| 20260506220056 | 55 | 138 | 2.0 | 6.0 | 0.01 | 1.73 | 1.73 | 95 | 1014.3 |
| 20260506215549 | 55 | 141 | 1.0 | 5.0 | 0.01 | 1.73 | 1.73 | 95 | 1014.3 |
| 20260506215047 | 55 | 87 | 1.0 | 5.0 | 0.02 | 1.73 | 1.73 | 95 | 1014.3 |
| 20260506214558 | 55 | 147 | 1.0 | 5.0 | 0.02 | 1.73 | 1.73 | 96 | 1014.1 |
| 20260506214052 | 55 | 160 | 1.0 | 5.0 | 0.02 | 1.73 | 1.73 | 95 | 1014.3 |
| 20260506213550 | 55 | 55 | 1.0 | 5.0 | 0.02 | 1.73 | 1.73 | 96 | 1014.4 |
| 20260506213054 | 55 | 172 | 1.0 | 5.0 | 0.02 | 1.73 | 1.73 | 95 | 1014.1 |
| 20260506212549 | 55 | 153 | 1.0 | 4.0 | 0.03 | 1.73 | 1.73 | 95 | 1014.3 |
| 20260506212049 | 55 | 0 | 1.0 | 2.0 | 0.04 | 1.73 | 1.73 | 95 | 1015.0 |
| 20260506211552 | 55 | 134 | 0.0 | 2.0 | 0.04 | 1.73 | 1.73 | 95 | 1015.4 |
| 20260506211050 | 55 | 153 | 0.0 | 2.0 | 0.05 | 1.73 | 1.73 | 95 | 1015.5 |
| 20260506210546 | 55 | 153 | 0.0 | 2.0 | 0.04 | 1.72 | 1.72 | 95 | 1015.8 |
| 20260506210109 | 55 | 126 | 0.0 | 2.0 | 0.05 | 1.72 | 1.72 | 94 | 1015.8 |
| 20260506205550 | 55 | 94 | 1.0 | 3.0 | 0.05 | 1.72 | 1.72 | 94 | 1015.6 |
| 20260506205050 | 55 | 124 | 0.0 | 4.0 | 0.04 | 1.71 | 1.71 | 94 | 1015.4 |
| 20260506204555 | 55 | 133 | 1.0 | 4.0 | 0.04 | 1.71 | 1.71 | 94 | 1015.2 |
| 20260506204052 | 55 | 169 | 1.0 | 5.0 | 0.04 | 1.71 | 1.71 | 94 | 1015.2 |
| 20260506203551 | 55 | 118 | 0.0 | 5.0 | 0.04 | 1.71 | 1.71 | 95 | 1015.3 |
| 20260506203101 | 55 | 193 | 1.0 | 5.0 | 0.04 | 1.71 | 1.71 | 94 | 1015.0 |
| 20260506202552 | 55 | 162 | 0.0 | 3.0 | 0.03 | 1.70 | 1.70 | 95 | 1015.3 |
| 20260506202052 | 54 | 199 | 0.0 | 3.0 | 0.02 | 1.69 | 1.69 | 94 | 1015.4 |
| 20260506201558 | 55 | 209 | 1.0 | 4.0 | 0.02 | 1.69 | 1.69 | 93 | 1015.5 |
| 20260506201053 | 55 | 0 | 1.0 | 4.0 | 0.01 | 1.68 | 1.68 | 93 | 1016.4 |
| 20260506200551 | 55 | 116 | 1.0 | 2.0 | 0.01 | 1.68 | 1.68 | 93 | 1015.8 |
| 20260506200136 | 55 | 156 | 1.0 | 2.0 | 0.00 | 1.67 | 1.67 | 92 | 1016.2 |